| time (UTC) | temp C | wind direction | speed KPH | gust KPH | rain 1hr cm | rain 24hr cm | rain mn cm | humidity % | barometer mb |
| 20260509101559 | 11 | 202 | 11.3 | 30.6 | 0.00 | 0.00 | 0.00 | 85 | 1001.6 |
| 20260509101043 | 10 | 196 | 12.9 | 30.6 | 0.00 | 0.00 | 0.00 | 85 | 1001.4 |
| 20260509100543 | 10 | 190 | 12.9 | 27.4 | 0.00 | 0.00 | 0.00 | 85 | 1001.5 |
| 20260509100051 | 10 | 172 | 12.9 | 27.4 | 0.00 | 0.00 | 0.00 | 85 | 1001.7 |
| 20260509095544 | 10 | 189 | 11.3 | 19.3 | 0.00 | 0.00 | 0.00 | 85 | 1001.7 |
| 20260509095043 | 10 | 155 | 9.7 | 19.3 | 0.00 | 0.00 | 0.00 | 85 | 1002.0 |
| 20260509094559 | 10 | 211 | 11.3 | 19.3 | 0.00 | 0.00 | 0.00 | 85 | 1002.1 |
| 20260509094043 | 10 | 186 | 9.7 | 17.7 | 0.00 | 0.00 | 0.00 | 85 | 1002.0 |
| 20260509093543 | 10 | 165 | 9.7 | 17.7 | 0.00 | 0.00 | 0.00 | 85 | 1002.0 |
| 20260509093051 | 10 | 173 | 8.0 | 17.7 | 0.00 | 0.00 | 0.00 | 85 | 1002.1 |
| 20260509092546 | 10 | 200 | 8.0 | 12.9 | 0.00 | 0.00 | 0.00 | 85 | 1002.2 |
| 20260509092050 | 10 | 192 | 4.8 | 16.1 | 0.00 | 0.00 | 0.00 | 85 | 1002.1 |
| 20260509091555 | 10 | 196 | 8.0 | 16.1 | 0.00 | 0.00 | 0.00 | 84 | 1002.1 |
| 20260509091043 | 10 | 186 | 8.0 | 14.5 | 0.00 | 0.00 | 0.00 | 84 | 1002.1 |
| 20260509090544 | 10 | 190 | 6.4 | 14.5 | 0.00 | 0.00 | 0.00 | 83 | 1002.2 |
| 20260509085546 | 10 | 202 | 6.4 | 19.3 | 0.00 | 0.00 | 0.00 | 83 | 1002.4 |
| 20260509085043 | 10 | 206 | 8.0 | 17.7 | 0.00 | 0.00 | 0.00 | 83 | 1002.3 |
| 20260509084600 | 10 | 173 | 8.0 | 17.7 | 0.00 | 0.00 | 0.00 | 83 | 1002.4 |
| 20260509084044 | 10 | 167 | 6.4 | 16.1 | 0.00 | 0.00 | 0.00 | 82 | 1002.4 |
| 20260509083545 | 10 | 178 | 8.0 | 17.7 | 0.00 | 0.00 | 0.00 | 81 | 1002.5 |
| 20260509083105 | 10 | 165 | 8.0 | 17.7 | 0.00 | 0.00 | 0.00 | 81 | 1002.6 |
| 20260509082544 | 10 | 174 | 8.0 | 16.1 | 0.00 | 0.00 | 0.00 | 80 | 1002.6 |
| 20260509082045 | 10 | 176 | 8.0 | 14.5 | 0.00 | 0.00 | 0.00 | 80 | 1002.7 |
| 20260509081553 | 10 | 176 | 6.4 | 12.9 | 0.00 | 0.00 | 0.00 | 80 | 1002.8 |
| 20260509081044 | 10 | 200 | 6.4 | 12.9 | 0.00 | 0.00 | 0.00 | 79 | 1002.9 |
| 20260509080543 | 10 | 167 | 4.8 | 11.3 | 0.00 | 0.00 | 0.00 | 79 | 1002.9 |
| 20260509080053 | 10 | 188 | 4.8 | 16.1 | 0.00 | 0.00 | 0.00 | 78 | 1003.0 |
| 20260509075543 | 10 | 201 | 4.8 | 16.1 | 0.00 | 0.00 | 0.00 | 78 | 1003.1 |
| 20260509075047 | 10 | 170 | 4.8 | 11.3 | 0.00 | 0.00 | 0.00 | 77 | 1003.0 |
| 20260509074610 | 10 | 219 | 4.8 | 12.9 | 0.00 | 0.00 | 0.00 | 77 | 1003.1 |
| 20260509074046 | 10 | 188 | 6.4 | 14.5 | 0.00 | 0.00 | 0.00 | 76 | 1003.1 |
| 20260509073549 | 10 | 195 | 6.4 | 17.7 | 0.00 | 0.00 | 0.00 | 76 | 1003.3 |
| 20260509073105 | 10 | 229 | 8.0 | 17.7 | 0.00 | 0.00 | 0.00 | 75 | 1003.3 |
| 20260509072546 | 10 | 220 | 11.3 | 19.3 | 0.00 | 0.00 | 0.00 | 74 | 1003.3 |
| 20260509072048 | 10 | 192 | 11.3 | 19.3 | 0.00 | 0.00 | 0.00 | 73 | 1003.4 |
| 20260509071556 | 10 | 207 | 12.9 | 19.3 | 0.00 | 0.00 | 0.00 | 72 | 1003.5 |
| 20260509071044 | 10 | 209 | 11.3 | 17.7 | 0.00 | 0.00 | 0.00 | 71 | 1003.7 |
| 20260509070546 | 10 | 202 | 11.3 | 17.7 | 0.00 | 0.00 | 0.00 | 70 | 1003.8 |
| 20260509070055 | 10 | 227 | 12.9 | 17.7 | 0.00 | 0.00 | 0.00 | 68 | 1003.8 |
| 20260509065548 | 10 | 234 | 11.3 | 19.3 | 0.00 | 0.00 | 0.00 | 66 | 1003.8 |
| 20260509065048 | 10 | 192 | 12.9 | 19.3 | 0.00 | 0.00 | 0.00 | 65 | 1003.8 |
| 20260509064550 | 10 | 209 | 11.3 | 16.1 | 0.00 | 0.00 | 0.00 | 63 | 1003.7 |
| 20260509064047 | 10 | 178 | 8.0 | 16.1 | 0.00 | 0.00 | 0.00 | 61 | 1003.8 |
| 20260509063546 | 10 | 215 | 8.0 | 12.9 | 0.00 | 0.00 | 0.00 | 59 | 1003.8 |
| 20260509063059 | 10 | 190 | 8.0 | 12.9 | 0.00 | 0.00 | 0.00 | 56 | 1004.0 |
| 20260509062545 | 10 | 205 | 6.4 | 14.5 | 0.00 | 0.00 | 0.00 | 53 | 1004.1 |
| 20260509062046 | 11 | 210 | 8.0 | 17.7 | 0.00 | 0.00 | 0.00 | 51 | 1004.2 |
| 20260509061556 | 11 | 182 | 9.7 | 17.7 | 0.00 | 0.00 | 0.00 | 49 | 1004.2 |
| 20260509061047 | 11 | 200 | 8.0 | 17.7 | 0.00 | 0.00 | 0.00 | 47 | 1004.2 |
| 20260509060547 | 11 | 204 | 6.4 | 17.7 | 0.00 | 0.00 | 0.00 | 44 | 1004.4 |
| 20260509060117 | 11 | 192 | 6.4 | 17.7 | 0.00 | 0.00 | 0.00 | 43 | 1004.3 |
| 20260509055545 | 11 | 163 | 11.3 | 17.7 | 0.00 | 0.00 | 0.00 | 42 | 1004.3 |
| 20260509055048 | 11 | 173 | 9.7 | 16.1 | 0.00 | 0.00 | 0.00 | 42 | 1004.4 |
| 20260509054553 | 11 | 186 | 8.0 | 16.1 | 0.00 | 0.00 | 0.00 | 41 | 1004.5 |
| 20260509054048 | 11 | 188 | 9.7 | 14.5 | 0.00 | 0.00 | 0.00 | 41 | 1004.6 |
| 20260509053548 | 11 | 173 | 6.4 | 14.5 | 0.00 | 0.00 | 0.00 | 41 | 1004.6 |
| 20260509053109 | 11 | 179 | 9.7 | 17.7 | 0.00 | 0.00 | 0.00 | 40 | 1004.7 |
| 20260509052544 | 11 | 189 | 11.3 | 17.7 | 0.00 | 0.00 | 0.00 | 40 | 1004.6 |
| 20260509052047 | 11 | 161 | 9.7 | 16.1 | 0.00 | 0.00 | 0.00 | 40 | 1004.7 |
| 20260509051606 | 11 | 167 | 9.7 | 17.7 | 0.00 | 0.00 | 0.00 | 40 | 1004.5 |
| 20260509051045 | 11 | 163 | 11.3 | 17.7 | 0.00 | 0.00 | 0.00 | 40 | 1004.5 |
| 20260509050550 | 11 | 170 | 11.3 | 17.7 | 0.00 | 0.00 | 0.00 | 40 | 1004.4 |
| 20260509045547 | 11 | 177 | 12.9 | 17.7 | 0.00 | 0.00 | 0.00 | 40 | 1004.5 |
| 20260509045045 | 11 | 178 | 12.9 | 17.7 | 0.00 | 0.00 | 0.00 | 39 | 1004.5 |
| 20260509044607 | 11 | 172 | 11.3 | 16.1 | 0.00 | 0.00 | 0.00 | 39 | 1004.6 |
| 20260509044046 | 11 | 161 | 11.3 | 17.7 | 0.00 | 0.00 | 0.00 | 38 | 1004.7 |
| 20260509043546 | 11 | 168 | 11.3 | 17.7 | 0.00 | 0.00 | 0.00 | 38 | 1004.7 |
| 20260509043100 | 11 | 153 | 12.9 | 17.7 | 0.00 | 0.00 | 0.00 | 38 | 1004.6 |
| 20260509042548 | 11 | 168 | 11.3 | 17.7 | 0.00 | 0.00 | 0.00 | 38 | 1004.7 |
| 20260509042045 | 11 | 138 | 11.3 | 16.1 | 0.00 | 0.00 | 0.00 | 37 | 1004.6 |
| 20260509041555 | 11 | 154 | 11.3 | 14.5 | 0.00 | 0.00 | 0.00 | 37 | 1004.7 |
| 20260509041046 | 11 | 169 | 11.3 | 14.5 | 0.00 | 0.00 | 0.00 | 37 | 1004.8 |
| 20260509040545 | 11 | 167 | 11.3 | 14.5 | 0.00 | 0.00 | 0.00 | 36 | 1004.9 |
| 20260509040106 | 11 | 168 | 9.7 | 14.5 | 0.00 | 0.00 | 0.00 | 36 | 1004.8 |
| 20260509035546 | 11 | 159 | 8.0 | 11.3 | 0.00 | 0.00 | 0.00 | 36 | 1005.0 |
| 20260509035046 | 11 | 156 | 9.7 | 12.9 | 0.00 | 0.00 | 0.00 | 36 | 1005.0 |
| 20260509034552 | 11 | 152 | 9.7 | 14.5 | 0.00 | 0.00 | 0.00 | 35 | 1005.2 |
| 20260509034048 | 11 | 163 | 9.7 | 14.5 | 0.00 | 0.00 | 0.00 | 34 | 1005.2 |
| 20260509033545 | 11 | 173 | 8.0 | 14.5 | 0.00 | 0.00 | 0.00 | 34 | 1005.4 |
| 20260509033111 | 11 | 174 | 9.7 | 14.5 | 0.00 | 0.00 | 0.00 | 34 | 1005.4 |
| 20260509032546 | 11 | 153 | 9.7 | 16.1 | 0.00 | 0.00 | 0.00 | 34 | 1005.5 |
| 20260509032045 | 11 | 165 | 9.7 | 16.1 | 0.00 | 0.00 | 0.00 | 33 | 1005.4 |
| 20260509031554 | 11 | 174 | 9.7 | 14.5 | 0.00 | 0.00 | 0.00 | 32 | 1005.4 |
| 20260509031045 | 11 | 169 | 9.7 | 16.1 | 0.00 | 0.00 | 0.00 | 32 | 1005.4 |
| 20260509030545 | 12 | 169 | 11.3 | 16.1 | 0.00 | 0.00 | 0.00 | 33 | 1005.5 |
| 20260509030055 | 12 | 165 | 11.3 | 16.1 | 0.00 | 0.00 | 0.00 | 32 | 1005.6 |
| 20260509025544 | 12 | 159 | 11.3 | 16.1 | 0.00 | 0.00 | 0.00 | 31 | 1005.6 |
| 20260509025046 | 12 | 165 | 11.3 | 16.1 | 0.00 | 0.00 | 0.00 | 31 | 1005.7 |
| 20260509024601 | 12 | 152 | 11.3 | 14.5 | 0.00 | 0.00 | 0.00 | 30 | 1005.7 |
| 20260509024047 | 12 | 155 | 11.3 | 14.5 | 0.00 | 0.00 | 0.00 | 31 | 1005.8 |
| 20260509023544 | 12 | 156 | 8.0 | 14.5 | 0.00 | 0.00 | 0.00 | 31 | 1005.9 |
| 20260509023054 | 12 | 174 | 9.7 | 14.5 | 0.00 | 0.00 | 0.00 | 30 | 1006.0 |
| 20260509022545 | 12 | 153 | 6.4 | 9.7 | 0.00 | 0.00 | 0.00 | 32 | 1006.0 |
| 20260509022045 | 12 | 185 | 4.8 | 11.3 | 0.00 | 0.00 | 0.00 | 31 | 1006.2 |
| 20260509021552 | 12 | 182 | 4.8 | 11.3 | 0.00 | 0.00 | 0.00 | 30 | 1006.2 |
| 20260509021046 | 12 | 217 | 4.8 | 11.3 | 0.00 | 0.00 | 0.00 | 32 | 1006.2 |
| 20260509020545 | 12 | 182 | 6.4 | 11.3 | 0.00 | 0.00 | 0.00 | 31 | 1006.2 |
| 20260509020111 | 12 | 202 | 6.4 | 12.9 | 0.00 | 0.00 | 0.00 | 31 | 1006.1 |
| 20260509015548 | 12 | 165 | 6.4 | 12.9 | 0.00 | 0.00 | 0.00 | 31 | 1006.0 |
| 20260509015047 | 12 | 169 | 8.0 | 11.3 | 0.00 | 0.00 | 0.00 | 30 | 1006.0 |
| 20260509014554 | 12 | 180 | 8.0 | 11.3 | 0.00 | 0.00 | 0.00 | 30 | 1006.1 |
| 20260509014047 | 12 | 185 | 8.0 | 11.3 | 0.00 | 0.00 | 0.00 | 29 | 1006.0 |
| 20260509013548 | 12 | 169 | 8.0 | 11.3 | 0.00 | 0.00 | 0.00 | 29 | 1006.0 |
| 20260509013055 | 13 | 165 | 8.0 | 11.3 | 0.00 | 0.00 | 0.00 | 29 | 1006.0 |
| 20260509012548 | 13 | 160 | 8.0 | 11.3 | 0.00 | 0.00 | 0.00 | 29 | 1005.8 |
| 20260509012047 | 13 | 167 | 8.0 | 11.3 | 0.00 | 0.00 | 0.00 | 29 | 1005.9 |
| 20260509011601 | 13 | 168 | 8.0 | 11.3 | 0.00 | 0.00 | 0.00 | 28 | 1005.9 |
| 20260509011047 | 13 | 165 | 8.0 | 9.7 | 0.00 | 0.00 | 0.00 | 29 | 1005.9 |
| 20260509010550 | 13 | 155 | 8.0 | 9.7 | 0.00 | 0.00 | 0.00 | 29 | 1005.9 |
| 20260509010056 | 13 | 171 | 8.0 | 11.3 | 0.00 | 0.00 | 0.00 | 28 | 1006.0 |
| 20260509005548 | 13 | 173 | 6.4 | 11.3 | 0.00 | 0.00 | 0.00 | 28 | 1006.0 |
| 20260509005048 | 13 | 173 | 6.4 | 9.7 | 0.00 | 0.00 | 0.00 | 28 | 1006.0 |
| 20260509004554 | 14 | 172 | 6.4 | 8.0 | 0.00 | 0.00 | 0.00 | 27 | 1006.0 |
| 20260509004047 | 14 | 168 | 6.4 | 8.0 | 0.00 | 0.00 | 0.00 | 27 | 1005.9 |
| 20260509003548 | 14 | 173 | 4.8 | 8.0 | 0.00 | 0.00 | 0.00 | 26 | 1006.0 |
| 20260509003056 | 14 | 180 | 3.2 | 6.4 | 0.00 | 0.00 | 0.00 | 25 | 1006.0 |
| 20260509002546 | 14 | 180 | 3.2 | 6.4 | 0.00 | 0.00 | 0.00 | 26 | 1006.0 |
| 20260509002046 | 14 | 180 | 3.2 | 8.0 | 0.00 | 0.00 | 0.00 | 27 | 1006.1 |
| 20260509001548 | 14 | 180 | 1.6 | 11.3 | 0.00 | 0.00 | 0.00 | 26 | 1006.2 |
| 20260509001047 | 15 | 201 | 4.8 | 11.3 | 0.00 | 0.00 | 0.00 | 27 | 1006.2 |
| 20260509000550 | 15 | 173 | 4.8 | 11.3 | 0.00 | 0.00 | 0.00 | 28 | 1006.2 |
| 20260509000049 | 15 | 219 | 6.4 | 11.3 | 0.00 | 0.00 | 0.00 | 26 | 1006.3 |
| 20260508235548 | 15 | 213 | 9.7 | 11.3 | 0.00 | 0.00 | 0.00 | 27 | 1006.4 |
| 20260508235047 | 15 | 179 | 8.0 | 16.1 | 0.00 | 0.00 | 0.00 | 29 | 1006.5 |
| 20260508234557 | 15 | 245 | 9.7 | 16.1 | 0.00 | 0.00 | 0.00 | 32 | 1006.6 |
| 20260508234047 | 15 | 222 | 9.7 | 12.9 | 0.00 | 0.00 | 0.00 | 28 | 1006.7 |
| 20260508233547 | 15 | 233 | 9.7 | 14.5 | 0.00 | 0.00 | 0.00 | 30 | 1006.7 |
| 20260508233104 | 15 | 200 | 4.8 | 16.1 | 0.00 | 0.00 | 0.00 | 31 | 1006.6 |
| 20260508232547 | 15 | 252 | 11.3 | 17.7 | 0.00 | 0.00 | 0.00 | 31 | 1006.8 |
| 20260508232047 | 15 | 252 | 11.3 | 17.7 | 0.00 | 0.00 | 0.00 | 29 | 1006.9 |
| 20260508231551 | 15 | 246 | 12.9 | 20.9 | 0.00 | 0.00 | 0.00 | 30 | 1006.9 |
| 20260508231048 | 15 | 240 | 14.5 | 20.9 | 0.00 | 0.00 | 0.00 | 32 | 1007.0 |
| 20260508230550 | 15 | 240 | 14.5 | 20.9 | 0.00 | 0.00 | 0.00 | 30 | 1007.0 |
| 20260508230052 | 15 | 237 | 12.9 | 20.9 | 0.00 | 0.00 | 0.00 | 31 | 1006.9 |
| 20260508225547 | 15 | 229 | 14.5 | 19.3 | 0.00 | 0.00 | 0.00 | 30 | 1006.9 |
| 20260508225046 | 16 | 270 | 14.5 | 19.3 | 0.00 | 0.00 | 0.00 | 30 | 1006.8 |
| 20260508224553 | 16 | 243 | 8.0 | 20.9 | 0.00 | 0.00 | 0.00 | 32 | 1006.9 |
| 20260508224048 | 16 | 257 | 12.9 | 22.5 | 0.00 | 0.00 | 0.00 | 30 | 1006.9 |
| 20260508223548 | 16 | 236 | 9.7 | 22.5 | 0.00 | 0.00 | 0.00 | 32 | 1006.8 |
| 20260508223053 | 16 | 229 | 11.3 | 19.3 | 0.00 | 0.00 | 0.00 | 31 | 1006.8 |
| 20260508222549 | 16 | 244 | 14.5 | 19.3 | 0.00 | 0.00 | 0.00 | 30 | 1007.0 |
| 20260508222049 | 16 | 268 | 14.5 | 19.3 | 0.00 | 0.00 | 0.00 | 30 | 1007.0 |
| 20260508221548 | 16 | 289 | 8.0 | 17.7 | 0.00 | 0.00 | 0.00 | 31 | 1007.0 |
| 20260508221048 | 16 | 295 | 9.7 | 17.7 | 0.00 | 0.00 | 0.00 | 33 | 1007.1 |
| 20260508220546 | 16 | 297 | 6.4 | 17.7 | 0.00 | 0.00 | 0.00 | 33 | 1007.2 |
| 20260508220055 | 16 | 344 | 11.3 | 17.7 | 0.00 | 0.00 | 0.00 | 29 | 1007.1 |
| 20260508215547 | 16 | 302 | 14.5 | 17.7 | 0.00 | 0.00 | 0.00 | 29 | 1007.1 |
| 20260508215048 | 16 | 267 | 9.7 | 20.9 | 0.00 | 0.00 | 0.00 | 30 | 1007.0 |
| 20260508214555 | 16 | 269 | 12.9 | 20.9 | 0.00 | 0.00 | 0.00 | 27 | 1007.0 |
| 20260508214049 | 16 | 315 | 17.7 | 20.9 | 0.00 | 0.00 | 0.00 | 30 | 1007.0 |
| 20260508213547 | 16 | 352 | 9.7 | 22.5 | 0.00 | 0.00 | 0.00 | 31 | 1007.0 |
| 20260508213055 | 16 | 277 | 11.3 | 22.5 | 0.00 | 0.00 | 0.00 | 31 | 1007.1 |
| 20260508212547 | 16 | 304 | 19.3 | 22.5 | 0.00 | 0.00 | 0.00 | 34 | 1007.1 |
| 20260508212049 | 16 | 285 | 11.3 | 27.4 | 0.00 | 0.00 | 0.00 | 31 | 1007.2 |
| 20260508211550 | 16 | 276 | 12.9 | 27.4 | 0.00 | 0.00 | 0.00 | 28 | 1007.2 |
| 20260508211048 | 16 | 309 | 6.4 | 24.1 | 0.00 | 0.00 | 0.00 | 30 | 1007.3 |
| 20260508210552 | 16 | 314 | 9.7 | 20.9 | 0.00 | 0.00 | 0.00 | 32 | 1007.3 |
| 20260508210051 | 16 | 296 | 12.9 | 20.9 | 0.00 | 0.00 | 0.00 | 30 | 1007.2 |
| 20260508205549 | 16 | 309 | 14.5 | 20.9 | 0.00 | 0.00 | 0.00 | 31 | 1007.3 |
| 20260508205048 | 16 | 289 | 9.7 | 22.5 | 0.00 | 0.00 | 0.00 | 33 | 1007.3 |
| 20260508204556 | 16 | 288 | 16.1 | 22.5 | 0.00 | 0.00 | 0.00 | 32 | 1007.4 |
| 20260508204050 | 16 | 302 | 16.1 | 22.5 | 0.00 | 0.00 | 0.00 | 29 | 1007.3 |
| 20260508203547 | 16 | 292 | 4.8 | 16.1 | 0.00 | 0.00 | 0.00 | 31 | 1007.4 |
| 20260508203053 | 16 | 251 | 11.3 | 20.9 | 0.00 | 0.00 | 0.00 | 28 | 1007.4 |
| 20260508202552 | 16 | 338 | 14.5 | 20.9 | 0.00 | 0.00 | 0.00 | 31 | 1007.5 |
| 20260508202047 | 16 | 275 | 8.0 | 22.5 | 0.00 | 0.00 | 0.00 | 34 | 1007.6 |
| 20260508201553 | 16 | 223 | 4.8 | 22.5 | 0.00 | 0.00 | 0.00 | 37 | 1007.6 |
| 20260508201047 | 16 | 279 | 12.9 | 24.1 | 0.00 | 0.00 | 0.00 | 30 | 1007.6 |
| 20260508200547 | 16 | 330 | 12.9 | 24.1 | 0.00 | 0.00 | 0.00 | 27 | 1007.8 |
| 20260508200057 | 16 | 281 | 16.1 | 24.1 | 0.00 | 0.00 | 0.00 | 32 | 1007.9 |
| 20260508195547 | 16 | 297 | 4.8 | 14.5 | 0.00 | 0.00 | 0.00 | 30 | 1007.9 |
| 20260508195048 | 16 | 234 | 8.0 | 20.9 | 0.00 | 0.00 | 0.00 | 32 | 1007.9 |
| 20260508194605 | 16 | 239 | 12.9 | 20.9 | 0.00 | 0.00 | 0.00 | 29 | 1007.8 |
| 20260508194049 | 16 | 235 | 9.7 | 20.9 | 0.00 | 0.00 | 0.00 | 30 | 1008.0 |
| 20260508193548 | 16 | 259 | 11.3 | 22.5 | 0.00 | 0.00 | 0.00 | 31 | 1008.0 |
| 20260508193117 | 15 | 232 | 8.0 | 22.5 | 0.00 | 0.00 | 0.00 | 32 | 1008.0 |
| 20260508192548 | 16 | 271 | 16.1 | 22.5 | 0.00 | 0.00 | 0.00 | 29 | 1008.2 |
| 20260508192050 | 15 | 263 | 6.4 | 17.7 | 0.00 | 0.00 | 0.00 | 34 | 1008.2 |
| 20260508191606 | 15 | 242 | 9.7 | 22.5 | 0.00 | 0.00 | 0.00 | 33 | 1008.2 |
| 20260508191043 | 15 | 242 | 16.1 | 22.5 | 0.00 | 0.00 | 0.00 | 38 | 1008.2 |
| 20260508190546 | 16 | 255 | 9.7 | 19.3 | 0.00 | 0.00 | 0.00 | 30 | 1008.2 |
| 20260508190110 | 15 | 223 | 11.3 | 20.9 | 0.00 | 0.00 | 0.00 | 33 | 1008.2 |
| 20260508185545 | 15 | 215 | 16.1 | 25.7 | 0.00 | 0.00 | 0.00 | 33 | 1008.3 |
| 20260508185045 | 15 | 276 | 14.5 | 29.0 | 0.00 | 0.00 | 0.00 | 30 | 1008.4 |
| 20260508184618 | 16 | 321 | 19.3 | 29.0 | 0.00 | 0.00 | 0.00 | 33 | 1008.4 |
| 20260508184047 | 15 | 243 | 11.3 | 19.3 | 0.00 | 0.00 | 0.00 | 30 | 1008.5 |
| 20260508183545 | 15 | 248 | 11.3 | 20.9 | 0.00 | 0.00 | 0.00 | 28 | 1008.6 |
| 20260508183102 | 15 | 219 | 12.9 | 22.5 | 0.00 | 0.00 | 0.00 | 38 | 1008.7 |
| 20260508182545 | 15 | 266 | 12.9 | 22.5 | 0.00 | 0.00 | 0.00 | 31 | 1008.5 |
| 20260508182042 | 15 | 280 | 11.3 | 19.3 | 0.00 | 0.00 | 0.00 | 29 | 1008.4 |
| 20260508181605 | 15 | 238 | 11.3 | 19.3 | 0.00 | 0.00 | 0.00 | 31 | 1008.7 |
| 20260508181042 | 15 | 314 | 11.3 | 19.3 | 0.00 | 0.00 | 0.00 | 36 | 1008.6 |
| 20260508180546 | 15 | 241 | 14.5 | 24.1 | 0.00 | 0.00 | 0.00 | 30 | 1008.6 |
| 20260508180105 | 15 | 242 | 11.3 | 24.1 | 0.00 | 0.00 | 0.00 | 31 | 1008.6 |
| 20260508175545 | 15 | 275 | 6.4 | 24.1 | 0.00 | 0.00 | 0.00 | 33 | 1008.7 |
| 20260508175048 | 16 | 311 | 12.9 | 24.1 | 0.00 | 0.00 | 0.00 | 29 | 1008.9 |
| 20260508174551 | 16 | 333 | 14.5 | 20.9 | 0.00 | 0.00 | 0.00 | 38 | 1009.0 |
| 20260508174046 | 16 | 303 | 14.5 | 20.9 | 0.00 | 0.00 | 0.00 | 37 | 1009.0 |
| 20260508173546 | 15 | 258 | 8.0 | 20.9 | 0.00 | 0.00 | 0.00 | 32 | 1009.0 |
| 20260508173057 | 15 | 282 | 14.5 | 24.1 | 0.00 | 0.00 | 0.00 | 28 | 1009.0 |
| 20260508172548 | 15 | 319 | 11.3 | 24.1 | 0.00 | 0.00 | 0.00 | 37 | 1008.9 |
| 20260508172046 | 15 | 281 | 11.3 | 27.4 | 0.00 | 0.00 | 0.00 | 30 | 1009.0 |
| 20260508171557 | 15 | 272 | 12.9 | 27.4 | 0.00 | 0.00 | 0.00 | 33 | 1009.0 |
| 20260508171045 | 15 | 259 | 19.3 | 27.4 | 0.00 | 0.00 | 0.00 | 31 | 1009.0 |
| 20260508170542 | 15 | 254 | 8.0 | 19.3 | 0.00 | 0.00 | 0.00 | 31 | 1009.1 |
| 20260508170110 | 15 | 228 | 9.7 | 19.3 | 0.00 | 0.00 | 0.00 | 35 | 1009.3 |
| 20260508165546 | 15 | 227 | 12.9 | 19.3 | 0.00 | 0.00 | 0.00 | 38 | 1009.4 |
| 20260508165042 | 15 | 194 | 12.9 | 19.3 | 0.00 | 0.00 | 0.00 | 35 | 1009.5 |
| 20260508164553 | 15 | 246 | 4.8 | 16.1 | 0.00 | 0.00 | 0.00 | 43 | 1009.7 |
| 20260508164046 | 14 | 268 | 9.7 | 20.9 | 0.00 | 0.00 | 0.00 | 33 | 1009.6 |
| 20260508163549 | 14 | 226 | 11.3 | 20.9 | 0.00 | 0.00 | 0.00 | 36 | 1009.8 |
| 20260508163106 | 14 | 244 | 11.3 | 22.5 | 0.00 | 0.00 | 0.00 | 41 | 1009.9 |
| 20260508162546 | 13 | 254 | 14.5 | 22.5 | 0.00 | 0.00 | 0.00 | 38 | 1010.1 |
| 20260508162049 | 13 | 180 | 11.3 | 19.3 | 0.00 | 0.00 | 0.00 | 37 | 1010.1 |
| 20260508161559 | 14 | 229 | 11.3 | 19.3 | 0.00 | 0.00 | 0.00 | 41 | 1010.2 |
| 20260508161047 | 14 | 238 | 11.3 | 25.7 | 0.00 | 0.00 | 0.00 | 40 | 1010.1 |
| 20260508160548 | 14 | 282 | 3.2 | 25.7 | 0.00 | 0.00 | 0.00 | 38 | 1010.2 |
| 20260508160057 | 14 | 203 | 14.5 | 25.7 | 0.00 | 0.00 | 0.00 | 41 | 1010.3 |
| 20260508155548 | 13 | 279 | 11.3 | 20.9 | 0.00 | 0.00 | 0.00 | 43 | 1010.1 |
| 20260508155048 | 13 | 253 | 12.9 | 20.9 | 0.00 | 0.00 | 0.00 | 43 | 1010.1 |
| 20260508154549 | 13 | 169 | 12.9 | 19.3 | 0.00 | 0.00 | 0.00 | 42 | 1010.1 |
| 20260508154048 | 13 | 160 | 9.7 | 19.3 | 0.00 | 0.00 | 0.00 | 39 | 1010.3 |
| 20260508153549 | 13 | 209 | 8.0 | 22.5 | 0.00 | 0.00 | 0.00 | 42 | 1010.1 |
| 20260508153106 | 13 | 226 | 16.1 | 22.5 | 0.00 | 0.00 | 0.00 | 42 | 1010.3 |
| 20260508152550 | 13 | 250 | 3.2 | 19.3 | 0.00 | 0.00 | 0.00 | 48 | 1010.2 |
| 20260508152048 | 13 | 306 | 12.9 | 19.3 | 0.00 | 0.00 | 0.00 | 41 | 1010.3 |
| 20260508151553 | 13 | 254 | 12.9 | 16.1 | 0.00 | 0.00 | 0.00 | 44 | 1010.3 |
| 20260508151047 | 13 | 227 | 6.4 | 16.1 | 0.00 | 0.00 | 0.00 | 48 | 1010.2 |
| 20260508150549 | 12 | 193 | 8.0 | 17.7 | 0.00 | 0.00 | 0.00 | 42 | 1010.4 |
| 20260508150054 | 13 | 190 | 9.7 | 17.7 | 0.00 | 0.00 | 0.00 | 42 | 1010.3 |
| 20260508145550 | 12 | 221 | 6.4 | 22.5 | 0.00 | 0.00 | 0.00 | 48 | 1010.4 |
| 20260508145047 | 12 | 213 | 14.5 | 22.5 | 0.00 | 0.00 | 0.00 | 51 | 1010.4 |
| 20260508144555 | 12 | 195 | 9.7 | 16.1 | 0.00 | 0.00 | 0.00 | 48 | 1010.4 |
| 20260508144048 | 12 | 242 | 4.8 | 14.5 | 0.00 | 0.00 | 0.00 | 51 | 1010.3 |
| 20260508143548 | 12 | 200 | 11.3 | 14.5 | 0.00 | 0.00 | 0.00 | 48 | 1010.4 |
| 20260508143116 | 12 | 238 | 8.0 | 12.9 | 0.00 | 0.00 | 0.00 | 55 | 1010.3 |
| 20260508142548 | 12 | 217 | 8.0 | 22.5 | 0.00 | 0.00 | 0.00 | 57 | 1010.4 |
| 20260508142048 | 12 | 192 | 8.0 | 22.5 | 0.00 | 0.00 | 0.00 | 56 | 1010.5 |
| 20260508141559 | 12 | 205 | 8.0 | 14.5 | 0.00 | 0.00 | 0.00 | 53 | 1010.5 |
| 20260508141047 | 12 | 167 | 6.4 | 11.3 | 0.00 | 0.00 | 0.00 | 62 | 1010.6 |
| 20260508140550 | 11 | 189 | 6.4 | 11.3 | 0.00 | 0.00 | 0.00 | 56 | 1010.6 |
| 20260508140115 | 11 | 246 | 6.4 | 11.3 | 0.00 | 0.00 | 0.00 | 62 | 1010.5 |
| 20260508135548 | 11 | 223 | 8.0 | 11.3 | 0.00 | 0.00 | 0.00 | 58 | 1010.6 |
| 20260508135048 | 11 | 212 | 8.0 | 11.3 | 0.00 | 0.00 | 0.00 | 67 | 1010.6 |
| 20260508134556 | 11 | 223 | 6.4 | 11.3 | 0.00 | 0.00 | 0.00 | 64 | 1010.6 |
| 20260508134047 | 10 | 175 | 6.4 | 14.5 | 0.00 | 0.00 | 0.00 | 64 | 1010.6 |
| 20260508133548 | 10 | 190 | 8.0 | 14.5 | 0.00 | 0.00 | 0.00 | 65 | 1010.6 |
| 20260508133053 | 10 | 196 | 6.4 | 9.7 | 0.00 | 0.00 | 0.00 | 67 | 1010.7 |
| 20260508132547 | 10 | 206 | 4.8 | 9.7 | 0.00 | 0.00 | 0.00 | 67 | 1010.7 |
| 20260508132048 | 10 | 205 | 3.2 | 4.8 | 0.00 | 0.00 | 0.00 | 70 | 1010.6 |
| 20260508131558 | 9 | 175 | 3.2 | 4.8 | 0.00 | 0.00 | 0.00 | 70 | 1010.7 |
| 20260508131047 | 9 | 182 | 3.2 | 8.0 | 0.00 | 0.00 | 0.00 | 73 | 1010.7 |
| 20260508130551 | 8 | 210 | 3.2 | 8.0 | 0.00 | 0.00 | 0.00 | 74 | 1010.8 |
| 20260508130051 | 8 | 213 | 4.8 | 8.0 | 0.00 | 0.00 | 0.00 | 74 | 1010.7 |
| 20260508125548 | 8 | 224 | 4.8 | 8.0 | 0.00 | 0.00 | 0.00 | 73 | 1010.9 |
| 20260508125048 | 8 | 212 | 6.4 | 8.0 | 0.00 | 0.00 | 0.00 | 73 | 1010.8 |
| 20260508124557 | 7 | 192 | 6.4 | 8.0 | 0.00 | 0.00 | 0.00 | 73 | 1010.8 |
| 20260508124048 | 7 | 216 | 4.8 | 6.4 | 0.00 | 0.00 | 0.00 | 74 | 1010.9 |
| 20260508123548 | 7 | 181 | 1.6 | 6.4 | 0.00 | 0.00 | 0.00 | 74 | 1011.0 |
| 20260508123055 | 7 | 181 | 3.2 | 8.0 | 0.00 | 0.00 | 0.00 | 73 | 1010.9 |
| 20260508122547 | 6 | 228 | 4.8 | 8.0 | 0.00 | 0.00 | 0.00 | 73 | 1010.9 |
| 20260508122047 | 6 | 211 | 4.8 | 8.0 | 0.00 | 0.00 | 0.00 | 73 | 1010.8 |
| 20260508121556 | 6 | 200 | 4.8 | 8.0 | 0.00 | 0.00 | 0.00 | 73 | 1010.7 |
| 20260508121047 | 6 | 165 | 4.8 | 8.0 | 0.00 | 0.00 | 0.00 | 74 | 1010.6 |
| 20260508120548 | 6 | 167 | 6.4 | 8.0 | 0.00 | 0.00 | 0.00 | 75 | 1010.6 |
| 20260508120111 | 6 | 158 | 4.8 | 6.4 | 0.00 | 0.00 | 0.00 | 75 | 1010.5 |
| 20260508115550 | 5 | 186 | 3.2 | 6.4 | 0.00 | 0.00 | 0.00 | 78 | 1010.4 |
| 20260508115052 | 5 | 157 | 1.6 | 8.0 | 0.00 | 0.00 | 0.00 | 81 | 1010.4 |
| 20260508114602 | 5 | 157 | 4.8 | 8.0 | 0.00 | 0.00 | 0.00 | 79 | 1010.4 |
| 20260508114048 | 5 | 151 | 4.8 | 8.0 | 0.00 | 0.00 | 0.00 | 80 | 1010.3 |
| 20260508113548 | 4 | 146 | 4.8 | 6.4 | 0.00 | 0.00 | 0.00 | 81 | 1010.3 |
| 20260508113053 | 4 | 142 | 3.2 | 4.8 | 0.00 | 0.00 | 0.00 | 82 | 1010.3 |
| 20260508112548 | 3 | 151 | 3.2 | 3.2 | 0.00 | 0.00 | 0.00 | 85 | 1010.3 |
| 20260508112047 | 3 | 130 | 3.2 | 4.8 | 0.00 | 0.00 | 0.00 | 86 | 1010.3 |
| 20260508111552 | 2 | 132 | 1.6 | 4.8 | 0.00 | 0.00 | 0.00 | 87 | 1010.2 |
| 20260508111048 | 2 | 136 | 1.6 | 6.4 | 0.00 | 0.00 | 0.00 | 88 | 1010.2 |
| 20260508110546 | 2 | 144 | 4.8 | 6.4 | 0.00 | 0.00 | 0.00 | 89 | 1010.2 |
| 20260508105547 | 2 | 155 | 4.8 | 6.4 | 0.00 | 0.00 | 0.00 | 89 | 1010.1 |
| 20260508105047 | 2 | 0 | 0.0 | 0.0 | 0.00 | 0.00 | 0.00 | 89 | 1010.1 |
| 20260508104556 | 2 | 0 | 0.0 | 0.0 | 0.00 | 0.00 | 0.00 | 89 | 1010.1 |
| 20260508104047 | 2 | 0 | 0.0 | 0.0 | 0.00 | 0.00 | 0.00 | 89 | 1010.0 |
| 20260508103547 | 2 | 0 | 0.0 | 0.0 | 0.00 | 0.00 | 0.00 | 90 | 1010.1 |
| 20260508103058 | 2 | 0 | 0.0 | 0.0 | 0.00 | 0.00 | 0.00 | 89 | 1009.8 |
| 20260508102549 | 2 | 0 | 0.0 | 0.0 | 0.00 | 0.00 | 0.00 | 89 | 1009.9 |
| 20260508102048 | 2 | 0 | 0.0 | 0.0 | 0.00 | 0.00 | 0.00 | 88 | 1010.0 |